Find Starlink 5442

NORAD ID: 54784 Int'l Des: 2022-175 Owner: SPXS Country: US Constellation: starlink operational
LEOCIRCULAR

Live-Position

3D-Globus wird geladen...

Über Starlink 5442

Beschreibung wird geladen...

Nächste Überflüge

Passes for default location (London). Set your location on the main map for personalized predictions.

Höhenverlauf

Loading altitude history...

Zweizeiliger Elementsatz

1 54784U 22175AC 26107.31560120 .00000308 00000-0 37457-4 0 9990
2 54784 53.2182 230.4825 0001275 95.6053 264.5085 15.08836728185752
Epoch: 17. Apr. 2026 • Age: 7 hours

Aktueller Status

Höhe 543.7 km
Geschwindigkeit 7.60 km/s
Subsatellitenpunkt 44.69°N, 142.18°W
Startdatum 17. Dez. 2022
Alter 3.3 years
Typ internet

Technische Details

Klassifizierung Payload
Masse 305.00 kg
Trockenmasse 290.00 kg
Gesamtmasse 305.00 kg
Länge 0.20 m
Durchmesser 2.80 m
Spannweite 9.00 m
Form Box + pan
Hersteller SPXS
Bus-Typ Starlink
Phasenstatus In Orbit
Besitzer/Staat SPXS/US

Most Searched